Probability
3 2 1 0 0 0 0 0 0 0 0 0 0 0 1 1 1 0 0 0 0 0 0 0 0 0 0 0 0 0 0 0 0 0 0 0 0 0
3 2 1 0 0 0 0 0 0 0 0 0 0 0 0 0 0 0 0 0 0 0 0 0 0 0 0 0 0 0 0 0 0 0 0 0 0 0
2 1 0 0 0 0 0 0 0 0 0 0 0 1 0 0 0 0 0 0 1 0 0 0 0 0 0 0 0 0 0 0 0 0 0 0 0 0
1 0 0 0 0 0 0 0 0 0 0 0 0 1 1 1 1 1 0 0 0 0 0 0 0 0 0 0 0 0 0 0 0 0 0 0 0 0
0 0 0 0 0 0 0 0 0 0 0 0 0 0 1 2 4 4 2 1 1 0 0 0 0 0 0 0 0 0 0 0 0 0 0 0 0 0
0 0 0 0 0 0 0 0 0 0 0 0 0 0 1 2 5 5 3 2 2 1 1 0 0 0 0 0 0 0 0 0 0 0 0 0 0 0
0 0 0 0 0 0 0 0 0 0 0 0 0 0 1 1 3 3 2 2 2 2 2 1 0 1 1 1 0 0 0 0 0 0 0 0 0 0
1 1 0 0 0 0 0 0 0 0 0 0 0 0 0 0 1 2 2 2 3 3 3 1 1 2 2 1 0 0 0 0 0 0 0 0 0 0
2 2 1 0 0 0 0 0 0 0 0 0 0 0 0 0 2 3 4 4 4 5 4 3 3 3 2 1 0 0 0 0 0 0 0 0 0 0
3 3 2 1 0 0 0 0 1 1 0 0 0 0 0 1 3 4 5 5 5 5 5 4 3 3 3 2 1 0 0 0 0 0 0 0 0 0
4 2 1 1 0 0 0 1 2 2 2 1 1 0 0 0 1 3 4 4 3 3 2 2 2 2 3 3 3 2 1 0 0 0 0 0 0 0
4 2 1 0 0 0 1 2 3 3 3 3 2 1 1 1 2 3 4 5 4 2 1 1 0 0 1 2 3 3 2 1 0 0 0 0 0 0
1 1 0 0 0 0 1 2 2 3 3 2 1 2 3 4 5 6 7 8 6 4 3 3 2 0 0 0 1 2 3 2 0 0 0 0 0 0
0 0 0 0 0 0 0 1 1 1 1 1 0 1 3 5 6 7 9 9 8 7 7 7 6 3 1 0 0 1 2 1 0 0 0 0 0 0
0 0 0 0 0 0 0 0 0 0 0 0 0 2 3 5 6 7 9 10 10 9 9 11 11 6 2 0 0 0 0 0 0 0 0 0 0 0
0 0 1 1 1 1 1 2 2 1 1 1 1 3 3 3 4 6 7 8 9 9 9 11 12 9 3 0 0 0 0 0 0 0 0 0 0 0
0 0 1 2 2 2 3 3 4 4 3 1 1 1 1 1 2 3 4 5 6 6 7 8 8 6 3 1 1 1 1 0 0 0 0 0 0 0
0 1 1 2 1 1 1 2 3 3 2 1 0 0 1 1 1 2 2 3 3 2 3 3 3 2 1 1 2 2 2 1 0 0 1 0 0 0
1 1 1 0 0 0 0 0 1 2 1 0 0 1 2 2 2 1 1 1 1 0 0 1 1 1 1 1 1 2 2 1 0 0 0 0 0 0
1 1 0 0 0 0 0 0 0 1 1 1 1 2 2 2 1 1 0 0 0 0 0 0 0 1 2 1 1 1 1 1 0 0 0 0 0 0
1 0 0 0 0 0 1 1 1 2 2 3 3 3 1 1 0 0 0 0 0 0 0 0 0 1 2 2 2 1 1 1 0 0 0 0 0 0
0 0 0 1 1 1 3 3 2 2 3 4 4 3 1 0 0 0 0 0 0 0 0 0 1 2 1 2 2 2 2 2 1 0 0 0 0 0
0 0 0 1 1 2 3 3 2 1 2 4 4 3 1 0 0 0 0 0 0 0 0 1 2 3 2 1 1 3 3 2 1 0 0 0 0 0
Wind_Speed
2 1 1 1 1 1 1 1 0 0 1 2 2 3 3 4 7 4 4 8 9 8 8 7 6 6 6 6 6 6 6 7 7 7 8 9 10 11
1 1 1 1 1 1 1 1 1 1 1 1 1 3 2 2 4 2 2 9 12 11 11 10 9 9 8 8 7 7 8 8 8 8 9 9 9 10
2 2 1 1 2 2 1 1 1 1 1 0 2 3 2 1 1 2 3 5 7 14 14 13 12 11 10 10 10 9 9 9 9 9 9 10 10 10
3 3 3 2 1 1 2 2 1 2 1 0 0 1 2 3 3 3 5 5 4 9 14 15 14 13 12 12 12 12 11 11 11 10 10 11 11 11
4 4 3 2 2 1 1 1 1 1 1 1 1 1 2 3 3 4 6 4 6 6 11 13 14 15 15 15 15 14 13 13 13 12 12 12 12 12
4 4 4 4 3 2 2 1 1 1 1 2 2 2 2 3 2 3 3 2 4 5 3 6 12 16 17 17 16 16 15 15 14 14 13 13 13 13
4 4 4 4 3 2 1 1 1 1 2 2 3 2 2 1 1 1 3 3 3 3 2 3 4 5 8 13 17 17 17 16 16 16 15 15 14 14
5 4 4 5 6 5 3 2 1 2 2 2 3 3 3 2 1 2 3 3 4 3 2 4 4 4 4 5 10 15 17 17 17 17 16 16 15 15
5 5 6 7 9 6 7 8 7 8 7 3 4 5 4 4 3 4 4 4 5 4 4 6 5 6 5 6 7 10 13 16 17 17 17 17 16 16
5 5 5 4 5 5 5 6 6 7 8 8 7 7 7 4 4 5 5 6 6 6 6 6 6 5 6 4 8 11 13 15 16 17 17 17 17 17
6 7 6 6 6 6 4 4 4 5 8 10 11 10 10 10 6 3 5 5 7 6 4 4 4 4 4 4 6 10 11 13 15 16 17 17 18 15
6 7 9 8 8 8 6 5 6 5 5 5 6 9 10 11 12 8 7 6 6 6 4 3 4 4 5 4 4 4 6 10 14 15 16 17 17 10
6 6 6 10 11 11 9 6 7 5 4 5 6 6 7 7 7 7 7 7 7 7 5 4 4 4 5 5 5 5 5 5 6 7 12 16 17 12
4 3 3 7 9 9 8 8 8 6 5 6 6 6 6 5 5 5 7 8 8 9 8 6 5 6 7 8 7 5 5 5 6 6 6 9 12 15
3 2 1 5 7 7 10 11 8 5 6 7 7 6 5 4 4 3 5 6 7 8 8 8 8 7 6 8 8 7 7 6 6 6 6 5 5 5
5 4 4 5 6 6 6 7 7 7 7 7 6 5 4 3 4 4 4 4 5 6 7 8 7 8 7 8 8 8 7 6 6 6 6 6 5 5
5 4 4 4 4 5 5 5 5 5 6 6 6 5 5 5 5 4 4 5 5 6 5 5 5 6 7 7 8 8 7 7 6 6 6 7 6 6
5 4 5 5 5 5 5 4 4 5 4 4 4 4 5 4 4 4 4 5 5 5 6 5 5 5 6 7 9 9 7 6 6 6 6 8 8 6
5 5 5 5 4 4 4 4 4 3 3 3 3 4 4 4 4 5 4 5 5 6 6 5 5 6 9 10 7 6 7 7 7 7 6 7 9 8
4 4 4 3 3 3 3 3 3 2 2 2 3 3 4 4 4 5 5 6 6 6 7 6 5 5 7 9 9 8 8 8 7 8 8 7 8 10
4 3 3 3 3 3 3 2 2 2 2 2 2 3 3 4 4 4 5 7 7 7 7 7 6 8 6 6 7 8 7 9 10 8 7 8 9 8
2 2 2 2 2 2 1 2 2 2 3 3 3 3 3 4 5 6 5 6 6 7 8 7 7 6 6 7 9 10 10 9 9 13 13 12 8 8
1 1 1 2 2 1 2 3 3 3 2 3 3 3 4 5 5 5 6 6 7 8 8 8 7 6 7 8 9 9 11 11 8 7 7 10 14 16
Wind_Direction
207 208 292 327 329 355 8 14 5 201 173 164 148 141 141 136 165 196 172 189 198 205 213 222 230 239 246 255 261 266 269 270 270 270 273 276 276 275
169 93 15 334 2 333 6 357 5 6 43 105 142 127 102 132 171 237 205 195 207 213 218 222 225 230 235 242 247 254 258 262 265 267 268 270 272 273
184 152 148 4 4 348 0 10 360 14 45 39 90 108 127 118 176 263 251 214 215 218 220 222 226 230 235 240 243 246 251 255 258 262 265 266 267 269
192 173 178 185 152 340 347 351 15 41 53 351 14 183 189 199 212 241 265 265 251 223 218 220 225 230 235 239 243 246 248 251 254 256 260 262 264 267
184 183 185 186 188 209 287 309 314 299 190 245 263 255 224 220 217 242 257 258 272 254 220 220 227 232 235 238 240 243 245 248 251 253 256 259 261 263
188 188 188 190 187 197 232 246 286 301 288 268 257 245 234 227 211 242 272 255 264 287 253 227 225 230 236 239 241 242 242 245 248 250 252 255 257 259
196 197 199 187 150 166 232 5 317 298 282 273 269 267 254 257 245 266 285 289 272 274 276 274 248 234 236 241 242 242 241 242 244 246 247 250 252 255
200 203 199 181 176 186 201 214 229 272 300 308 301 304 310 318 323 305 301 306 299 305 325 300 292 278 260 242 231 228 232 237 241 243 245 246 248 251
201 206 225 217 192 195 208 223 235 235 228 242 271 282 292 302 321 313 301 296 284 286 291 281 274 271 268 280 261 239 234 236 239 241 243 245 246 249
214 215 223 236 213 202 211 213 222 225 222 224 238 252 260 267 268 269 274 278 269 264 254 264 265 263 274 270 254 249 243 239 239 241 243 244 247 249
226 224 221 220 210 198 215 235 246 256 245 235 228 240 249 256 255 270 271 273 278 278 268 268 278 282 279 277 274 267 258 250 246 247 247 247 248 250
222 225 224 219 207 201 208 224 243 253 271 273 254 253 251 251 242 230 241 255 269 278 273 278 288 299 292 275 278 285 275 263 259 256 252 251 251 250
224 217 210 200 203 206 210 221 236 253 274 275 270 261 251 245 237 223 220 230 249 261 276 286 287 288 282 288 289 283 278 279 274 264 257 254 252 240
236 226 195 184 191 202 213 231 241 253 262 266 267 265 261 256 247 236 228 228 231 243 255 261 268 272 281 285 286 280 277 278 278 275 269 267 255 245
240 223 222 202 199 212 226 233 235 236 244 254 259 261 262 265 266 264 260 248 246 250 256 249 252 258 261 273 280 281 284 278 274 277 277 274 271 264
228 226 218 214 223 238 234 228 226 234 239 249 257 264 272 274 271 267 269 272 270 267 259 257 255 257 263 266 272 278 276 276 277 276 279 278 274 268
204 220 232 229 229 233 233 231 228 230 238 248 259 265 268 268 269 272 273 273 272 277 281 273 263 259 259 267 273 271 273 275 275 280 284 283 274 268
186 222 231 235 241 243 242 243 240 241 245 247 250 257 267 272 278 278 273 271 275 279 282 285 288 288 282 267 252 269 274 279 282 281 279 281 282 276
189 223 237 243 248 254 257 255 254 249 242 245 255 259 262 270 275 281 284 286 285 284 283 283 283 283 287 287 280 258 275 282 283 280 276 273 278 278
217 228 237 246 258 266 272 275 270 266 258 257 262 267 270 273 279 283 286 290 293 292 289 282 275 271 274 284 290 284 264 269 277 279 281 278 274 274
221 233 242 250 260 265 269 273 274 278 278 273 274 279 282 284 286 291 293 295 292 289 289 286 279 281 279 282 283 281 279 265 259 266 278 286 287 285
226 238 248 256 261 268 291 298 297 293 293 292 296 297 297 295 294 294 293 293 288 286 289 289 291 292 285 280 282 285 289 287 274 263 256 254 265 274
251 279 292 301 310 314 311 300 295 294 302 313 316 317 317 310 304 297 293 292 295 295 294 292 290 284 281 280 283 284 286 289 288 285 278 270 264 261